N4DWK Weather Reports


Display with metric or nautical units.
time (UTC)temp
F
wind
direction
speed
MPH
gust
MPH
rain 1hr
in
rain 24hr
in
rain mn
in
humidity
%
barometer
mb
20260906193005 81 253 0.0 5.0 0.00 0.00 0.00 65 1013.7
20260906192507 82 12 2.0 8.0 0.00 0.00 0.00 63 1013.7
20260906192005 82 29 3.0 8.0 0.00 0.00 0.00 63 1013.8
20260906191505 81 357 3.0 6.0 0.00 0.00 0.00 64 1013.8
20260906191006 81 9 3.0 6.0 0.00 0.00 0.00 63 1013.8
20260906190505 82 36 2.0 7.0 0.00 0.00 0.00 62 1013.9
20260906190006 82 26 2.0 7.0 0.00 0.01 0.00 64 1014.0
20260906185505 82 69 1.0 6.0 0.00 0.01 0.00 65 1014.1
20260906185005 83 32 3.0 7.0 0.00 0.01 0.00 61 1014.1
20260906184505 84 346 2.0 7.0 0.00 0.01 0.00 59 1014.0
20260906184005 84 21 2.0 8.0 0.00 0.01 0.00 61 1014.1
20260906183507 82 307 4.0 8.0 0.00 0.03 0.00 61 1014.2
20260906183005 82 2 2.0 8.0 0.00 0.06 0.00 62 1014.2
20260906182505 82 343 2.0 8.0 0.00 0.06 0.00 64 1014.3
20260906182006 82 30 3.0 7.0 0.00 0.06 0.00 62 1014.3
20260906181506 84 22 3.0 8.0 0.00 0.06 0.00 59 1014.3
20260906181006 85 45 5.0 8.0 0.00 0.06 0.00 59 1014.4
20260906180505 84 6 2.0 6.0 0.00 0.06 0.00 62 1014.3
20260906180005 82 12 3.0 6.0 0.00 0.06 0.00 62 1014.3
20260906175504 80 114 1.0 6.0 0.00 0.06 0.00 65 1014.3
20260906175005 81 50 2.0 6.0 0.00 0.06 0.00 64 1014.3
20260906174505 81 126 2.0 7.0 0.00 0.06 0.00 63 1014.3
20260906174005 82 355 0.0 7.0 0.00 0.06 0.00 63 1014.2
20260906173505 83 5 2.0 7.0 0.00 0.06 0.00 62 1014.2
20260906173005 82 357 0.0 8.0 0.00 0.06 0.00 66 1014.3
20260906172505 81 11 3.0 8.0 0.00 0.06 0.00 64 1014.4
20260906172005 81 10 3.0 7.0 0.00 0.06 0.00 64 1014.4
20260906171504 81 119 1.0 6.0 0.00 0.06 0.00 64 1014.4
20260906171005 82 93 2.0 6.0 0.00 0.06 0.00 63 1014.4
20260906170505 82 336 2.0 6.0 0.00 0.06 0.00 67 1014.4
20260906170005 81 26 3.0 6.0 0.00 0.06 0.00 67 1014.4
20260906165504 80 352 2.0 8.0 0.00 0.07 0.00 68 1014.5
20260906165005 80 65 2.0 8.0 0.00 0.07 0.00 66 1014.6
20260906164505 80 106 2.0 8.0 0.00 0.08 0.00 66 1014.6
20260906164005 80 142 1.0 9.0 0.00 0.14 0.00 67 1014.6
20260906163505 79 42 3.0 9.0 0.00 0.18 0.00 66 1014.7
20260906163005 79 30 2.0 8.0 0.00 0.20 0.00 66 1014.7
20260906162505 80 349 3.0 8.0 0.00 0.25 0.00 64 1014.7
20260906162006 80 0 0.0 6.0 0.00 0.34 0.00 65 1014.7
20260906161505 80 12 2.0 12.0 0.00 0.39 0.00 65 1014.7
20260906161006 79 8 6.0 12.0 0.00 0.41 0.00 65 1014.8
20260906160505 79 357 1.0 7.0 0.00 0.41 0.00 67 1014.7
20260906160005 79 1 4.0 7.0 0.00 0.41 0.00 67 1014.8
20260906155505 79 139 0.0 10.0 0.00 0.41 0.00 68 1014.8
20260906155006 79 27 1.0 10.0 0.00 0.41 0.00 67 1015.0
20260906154504 79 52 2.0 10.0 0.00 0.41 0.00 68 1015.1
20260906154006 79 0 0.0 8.0 0.00 0.41 0.00 69 1015.0
20260906153505 78 60 3.0 8.0 0.00 0.41 0.00 68 1015.0
20260906153006 78 120 3.0 9.0 0.00 0.41 0.00 70 1015.0
20260906152505 78 36 3.0 9.0 0.00 0.41 0.00 72 1014.9
20260906152005 77 284 1.0 7.0 0.00 0.41 0.00 72 1014.9
20260906151505 77 54 3.0 7.0 0.00 0.41 0.00 73 1014.9
20260906151005 77 3 2.0 8.0 0.00 0.41 0.00 73 1014.9
20260906150505 77 110 1.0 8.0 0.00 0.41 0.00 74 1014.8
20260906150005 77 45 1.0 8.0 0.00 0.41 0.00 75 1014.8
20260906145504 77 24 3.0 8.0 0.00 0.41 0.00 75 1014.7
20260906145005 76 122 0.0 3.0 0.00 0.41 0.00 77 1014.7
20260906144505 76 121 0.0 5.0 0.00 0.41 0.00 79 1014.7
20260906144005 76 36 2.0 5.0 0.00 0.41 0.00 80 1014.7
20260906143504 76 334 1.0 3.0 0.00 0.41 0.00 80 1014.7
20260906143005 76 51 0.0 6.0 0.00 0.41 0.00 82 1014.7
20260906142505 75 136 1.0 6.0 0.00 0.41 0.00 81 1014.7
20260906142006 75 137 2.0 6.0 0.00 0.41 0.00 81 1014.7
20260906141505 75 49 2.0 6.0 0.00 0.41 0.00 81 1014.7
20260906141005 75 36 0.0 6.0 0.00 0.41 0.00 81 1014.6
20260906140505 75 15 2.0 6.0 0.00 0.41 0.00 81 1014.6
20260906140005 75 27 2.0 6.0 0.00 0.41 0.00 81 1014.5
20260906135505 75 39 2.0 3.0 0.00 0.41 0.00 81 1014.6
20260906135006 75 32 1.0 3.0 0.00 0.41 0.00 81 1014.5
20260906134505 75 80 2.0 6.0 0.00 0.41 0.00 82 1014.5
20260906134004 75 43 1.0 6.0 0.00 0.41 0.00 83 1014.4
20260906133504 74 33 1.0 3.0 0.00 0.41 0.00 85 1014.3
20260906133005 74 112 0.0 5.0 0.00 0.41 0.00 86 1014.2
20260906132505 73 39 2.0 5.0 0.00 0.41 0.00 87 1014.2
20260906132006 73 38 2.0 6.0 0.00 0.41 0.00 89 1014.1
20260906131505 72 102 2.0 6.0 0.00 0.41 0.00 89 1014.1
20260906131005 72 32 1.0 3.0 0.00 0.41 0.00 90 1014.1
20260906130505 71 25 1.0 3.0 0.00 0.41 0.00 90 1014.1
20260906130005 71 40 2.0 3.0 0.00 0.41 0.00 90 1014.0
20260906125505 71 46 2.0 5.0 0.00 0.41 0.00 90 1014.3
20260906125005 71 44 1.0 5.0 0.00 0.41 0.00 90 1014.5
20260906124504 71 5 0.0 5.0 0.00 0.41 0.00 90 1014.5
20260906124005 71 359 2.0 5.0 0.00 0.41 0.00 90 1014.4
20260906123505 71 355 1.0 5.0 0.00 0.41 0.00 90 1014.4
20260906123005 71 39 1.0 3.0 0.00 0.41 0.00 90 1014.3
20260906122504 71 40 1.0 2.0 0.00 0.41 0.00 90 1014.2
20260906122004 71 40 0.0 3.0 0.00 0.41 0.00 90 1014.1
20260906121506 71 43 0.0 3.0 0.00 0.41 0.00 90 1014.1
20260906121005 71 44 1.0 3.0 0.00 0.41 0.00 90 1014.0
20260906120505 71 22 0.0 6.0 0.00 0.41 0.00 90 1013.9
20260906120005 71 38 1.0 6.0 0.00 0.41 0.00 90 1013.8
20260906115504 71 30 2.0 6.0 0.00 0.41 0.00 90 1013.8
20260906115005 71 42 3.0 6.0 0.00 0.41 0.00 90 1013.8
20260906114505 71 63 0.0 0.0 0.00 0.41 0.00 91 1013.8
20260906114004 70 74 0.0 0.0 0.00 0.41 0.00 91 1013.7
20260906113506 70 110 0.0 2.0 0.00 0.41 0.00 91 1013.6
20260906113005 70 74 0.0 3.0 0.00 0.41 0.00 91 1013.5
20260906112505 70 63 1.0 3.0 0.00 0.41 0.00 92 1013.4
20260906112006 70 40 1.0 3.0 0.00 0.41 0.00 92 1013.3
20260906111504 70 46 1.0 3.0 0.00 0.41 0.00 92 1013.3
20260906111004 70 55 0.0 3.0 0.00 0.41 0.00 92 1013.1
20260906110505 70 65 0.0 3.0 0.00 0.41 0.00 93 1013.0
20260906110005 70 81 0.0 3.0 0.00 0.41 0.00 93 1013.0
20260906105505 70 30 1.0 3.0 0.00 0.41 0.00 93 1012.9
20260906105004 70 36 1.0 3.0 0.00 0.41 0.00 93 1012.9
20260906104504 70 36 0.0 3.0 0.00 0.41 0.00 94 1012.9
20260906104004 71 36 1.0 3.0 0.00 0.41 0.00 94 1012.9
20260906103505 71 346 1.0 3.0 0.00 0.41 0.00 94 1012.9
20260906103005 71 346 1.0 3.0 0.00 0.41 0.00 95 1012.8
20260906102505 71 16 0.0 2.0 0.00 0.41 0.00 95 1012.8
20260906102005 71 16 0.0 2.0 0.00 0.41 0.00 95 1012.7
20260906101504 71 16 1.0 2.0 0.00 0.41 0.00 95 1012.6
20260906101004 71 16 0.0 0.0 0.00 0.41 0.00 95 1012.5
20260906100504 71 16 0.0 3.0 0.00 0.41 0.00 95 1012.4
20260906100004 71 16 0.0 3.0 0.00 0.41 0.00 95 1012.3
20260906095504 71 18 1.0 3.0 0.00 0.41 0.00 95 1012.3
20260906095004 71 350 0.0 2.0 0.00 0.41 0.00 95 1012.2
20260906094505 71 346 0.0 2.0 0.00 0.41 0.00 95 1012.1
20260906094004 71 346 0.0 3.0 0.00 0.41 0.00 95 1012.2
20260906093505 71 346 0.0 3.0 0.00 0.41 0.00 95 1012.2
20260906093004 72 40 1.0 3.0 0.00 0.41 0.00 95 1012.1
20260906092504 72 41 0.0 0.0 0.00 0.41 0.00 95 1012.0
20260906092005 72 41 0.0 0.0 0.00 0.41 0.00 95 1012.0
20260906091504 72 41 0.0 0.0 0.00 0.41 0.00 95 1012.0
20260906091004 72 41 0.0 2.0 0.00 0.41 0.00 95 1011.9
20260906090504 72 41 0.0 3.0 0.00 0.41 0.00 95 1011.9
20260906090005 72 41 1.0 3.0 0.00 0.41 0.00 95 1011.9
20260906085505 72 40 1.0 3.0 0.00 0.41 0.00 95 1011.8
20260906085004 72 40 0.0 3.0 0.00 0.41 0.00 95 1011.8
20260906084504 72 40 0.0 3.0 0.00 0.41 0.00 95 1011.8
20260906084004 73 6 1.0 3.0 0.00 0.41 0.00 95 1011.8
20260906083504 73 355 0.0 2.0 0.00 0.41 0.00 95 1011.8
20260906083005 73 355 0.0 1.0 0.00 0.41 0.00 95 1011.8
20260906082504 73 355 0.0 0.0 0.00 0.41 0.00 95 1011.8
20260906082004 73 355 0.0 0.0 0.00 0.41 0.00 95 1011.7
20260906081504 73 355 0.0 0.0 0.00 0.41 0.00 95 1011.7
20260906081004 73 355 0.0 0.0 0.00 0.41 0.00 95 1011.7
20260906080505 73 355 0.0 0.0 0.00 0.41 0.00 95 1011.7
20260906080004 73 355 0.0 0.0 0.00 0.41 0.00 95 1011.7
20260906075504 73 355 0.0 0.0 0.00 0.41 0.00 95 1011.7
20260906075004 73 355 0.0 0.0 0.00 0.41 0.00 95 1011.6
20260906074504 73 355 0.0 0.0 0.00 0.41 0.00 95 1011.5
20260906074004 73 355 0.0 1.0 0.00 0.41 0.00 95 1011.5
20260906073504 73 355 0.0 1.0 0.00 0.41 0.00 95 1011.6
20260906073005 73 355 0.0 1.0 0.00 0.41 0.00 95 1011.6
20260906072505 73 355 0.0 0.0 0.00 0.41 0.00 95 1011.6
20260906072004 73 355 0.0 0.0 0.00 0.41 0.00 95 1011.5
20260906071504 73 355 0.0 0.0 0.00 0.41 0.00 95 1011.5
20260906071005 73 355 0.0 0.0 0.00 0.41 0.00 95 1011.4
20260906070505 73 355 0.0 1.0 0.00 0.41 0.00 95 1011.5
20260906070004 73 355 0.0 1.0 0.00 0.41 0.00 95 1011.5
20260906065504 73 355 0.0 0.0 0.00 0.41 0.00 95 1011.4
20260906065004 73 355 0.0 0.0 0.00 0.41 0.00 95 1011.4
20260906064504 73 355 0.0 0.0 0.00 0.41 0.00 95 1011.4
20260906064004 73 355 0.0 0.0 0.00 0.41 0.00 95 1011.5
20260906063505 73 355 0.0 0.0 0.00 0.41 0.00 95 1011.6
20260906063005 73 355 0.0 0.0 0.00 0.41 0.00 95 1011.6
20260906062504 73 355 0.0 0.0 0.00 0.41 0.00 95 1011.6
20260906062005 73 355 0.0 0.0 0.00 0.41 0.00 95 1011.6
20260906061504 73 355 0.0 2.0 0.00 0.41 0.00 95 1011.7
20260906061004 73 355 0.0 2.0 0.00 0.41 0.00 95 1011.7
20260906060504 73 355 0.0 2.0 0.00 0.41 0.00 95 1011.6
20260906060004 73 355 0.0 0.0 0.00 0.41 0.00 95 1011.7
20260906055504 73 355 0.0 3.0 0.00 0.41 0.00 95 1011.8
20260906055005 73 355 1.0 5.0 0.00 0.41 0.00 95 1011.8
20260906054504 73 355 2.0 5.0 0.00 0.41 0.00 95 1011.8
20260906054005 73 40 0.0 3.0 0.00 0.41 0.00 95 1011.8
20260906053504 73 41 0.0 3.0 0.00 0.41 0.00 95 1011.8
20260906053004 73 41 1.0 3.0 0.00 0.41 0.00 95 1011.7
20260906052505 73 39 0.0 0.0 0.00 0.41 0.00 95 1011.9
20260906052004 73 39 0.0 2.0 0.00 0.41 0.00 95 1011.9
20260906051504 73 39 0.0 2.0 0.00 0.41 0.00 95 1012.1
20260906051004 73 40 0.0 3.0 0.00 0.41 0.00 95 1012.1
20260906050504 73 40 0.0 3.0 0.00 0.41 0.00 95 1012.0
20260906050004 73 40 1.0 3.0 0.00 0.41 0.00 95 1012.0
20260906045503 73 40 0.0 3.0 0.00 0.41 0.00 95 1011.9
20260906045005 73 39 0.0 5.0 0.00 0.41 0.00 95 1011.9
20260906044504 73 39 2.0 5.0 0.00 0.41 0.00 95 1011.9
20260906044004 73 15 0.0 0.0 0.00 0.41 0.00 95 1011.9
20260906043505 73 15 0.0 0.0 0.00 0.41 0.00 95 1011.9
20260906043004 73 15 0.0 0.0 0.00 0.41 0.00 95 1011.9
20260906042504 73 15 0.0 0.0 0.00 0.41 0.00 95 1012.1
20260906042004 73 15 0.0 0.0 0.00 0.41 0.00 95 1012.2
20260906041505 73 15 0.0 0.0 0.00 0.41 0.00 95 1012.2
20260906041005 73 15 0.0 0.0 0.00 0.41 0.00 95 1012.1
20260906040504 73 15 0.0 0.0 0.00 0.41 0.00 95 1012.1
20260906040004 73 15 0.0 0.0 0.00 0.41 0.00 95 1012.1
20260906035504 73 15 0.0 0.0 0.00 0.41 0.41 95 1012.1
20260906035004 73 15 0.0 0.0 0.00 0.41 0.41 94 1012.1
20260906034504 73 15 0.0 0.0 0.00 0.41 0.41 94 1012.1
20260906034004 73 15 0.0 0.0 0.00 0.41 0.41 94 1012.1
20260906033504 73 15 0.0 0.0 0.00 0.41 0.41 94 1012.0
20260906033004 73 15 0.0 0.0 0.00 0.41 0.41 94 1012.0
20260906032505 74 15 0.0 0.0 0.00 0.41 0.41 94 1012.0
20260906032004 74 15 0.0 0.0 0.00 0.41 0.41 94 1012.0
20260906031503 74 15 0.0 0.0 0.00 0.41 0.41 94 1012.0
20260906031005 74 15 0.0 0.0 0.00 0.41 0.41 94 1012.0
20260906030503 74 15 0.0 0.0 0.00 0.41 0.41 94 1011.9
20260906030004 74 15 0.0 0.0 0.00 0.41 0.41 94 1012.0
20260906025504 74 15 0.0 0.0 0.00 0.41 0.41 94 1012.1
20260906025004 74 15 0.0 0.0 0.00 0.41 0.41 94 1012.1
20260906024504 74 5 0.0 0.0 0.00 0.41 0.41 94 1012.1
20260906024004 74 5 0.0 0.0 0.00 0.41 0.41 94 1012.0
20260906023504 74 5 0.0 0.0 0.00 0.41 0.41 94 1012.1
20260906023004 74 5 0.0 0.0 0.00 0.41 0.41 94 1012.0
20260906022504 74 5 0.0 0.0 0.00 0.41 0.41 93 1011.9
20260906022004 74 5 0.0 0.0 0.00 0.41 0.41 94 1011.9
20260906021504 74 5 0.0 0.0 0.00 0.41 0.41 93 1012.0
20260906021004 74 5 0.0 2.0 0.00 0.41 0.41 93 1012.0
20260906020504 75 5 0.0 2.0 0.00 0.41 0.41 93 1012.0
20260906020004 75 5 1.0 2.0 0.00 0.41 0.41 93 1012.0
20260906015504 75 5 0.0 0.0 0.00 0.41 0.41 93 1011.9
20260906015004 75 5 0.0 0.0 0.00 0.41 0.41 93 1012.0
20260906014504 75 5 0.0 0.0 0.00 0.41 0.41 93 1012.0
20260906014004 75 5 0.0 0.0 0.00 0.41 0.41 93 1011.9
20260906013503 75 5 0.0 0.0 0.00 0.41 0.41 93 1011.8
20260906013003 75 5 0.0 0.0 0.00 0.41 0.41 93 1011.8
20260906012504 75 5 0.0 0.0 0.00 0.41 0.41 93 1011.7
20260906012004 75 5 0.0 0.0 0.00 0.41 0.41 93 1011.6
20260906011503 75 5 0.0 0.0 0.00 0.41 0.41 93 1011.6
20260906011004 76 5 0.0 0.0 0.00 0.41 0.41 93 1011.7
20260906010504 76 5 0.0 0.0 0.00 0.41 0.41 92 1011.6
20260906010004 76 5 0.0 2.0 0.00 0.41 0.41 92 1011.4
20260906005504 76 5 1.0 2.0 0.00 0.41 0.41 92 1011.2
20260906005004 76 5 1.0 2.0 0.00 0.41 0.41 92 1011.1
20260906004505 76 5 0.0 0.0 0.00 0.41 0.41 92 1011.2
20260906004004 76 5 0.0 1.0 0.00 0.41 0.41 91 1011.1
20260906003504 76 5 0.0 2.0 0.00 0.41 0.41 91 1011.1
20260906003004 76 5 0.0 2.0 0.00 0.41 0.41 91 1011.1
20260906002504 76 5 0.0 3.0 0.00 0.41 0.41 91 1011.0
20260906002004 77 5 1.0 3.0 0.00 0.41 0.41 90 1010.9
20260906001504 77 5 0.0 0.0 0.00 0.41 0.41 90 1010.7
20260906001004 77 5 0.0 0.0 0.00 0.41 0.41 90 1010.7
20260906000504 77 5 0.0 0.0 0.00 0.41 0.41 90 1010.6
20260906000003 77 5 0.0 0.0 0.00 0.41 0.41 89 1010.5
20260905235503 77 5 0.0 0.0 0.00 0.41 0.41 89 1010.6
20260905235004 77 5 0.0 0.0 0.00 0.41 0.41 88 1010.6
20260905234504 77 5 0.0 0.0 0.00 0.41 0.41 88 1010.7
20260905234004 77 5 0.0 0.0 0.00 0.41 0.41 88 1010.8
20260905233503 77 5 0.0 0.0 0.00 0.41 0.41 88 1010.5
20260905233003 78 5 0.0 0.0 0.00 0.41 0.41 87 1010.3
20260905232504 78 5 0.0 0.0 0.00 0.41 0.41 87 1010.2
20260905232004 78 5 0.0 2.0 0.00 0.41 0.41 86 1010.1
20260905231504 78 5 0.0 3.0 0.00 0.42 0.41 85 1010.1
20260905231004 78 5 0.0 5.0 0.00 0.42 0.41 85 1010.4
20260905230503 78 0 2.0 5.0 0.00 0.42 0.41 85 1010.6
20260905230003 78 356 3.0 5.0 0.00 0.42 0.41 85 1010.8
20260905225505 79 24 0.0 3.0 0.00 0.43 0.41 85 1010.8
20260905225003 79 18 1.0 3.0 0.00 0.43 0.41 86 1010.7
20260905224505 79 5 0.0 3.0 0.00 0.43 0.41 85 1010.6
20260905224004 79 5 0.0 3.0 0.00 0.43 0.41 85 1010.5
20260905223504 79 5 0.0 3.0 0.00 0.43 0.41 85 1010.7
20260905223005 80 0 1.0 3.0 0.00 0.43 0.41 85 1010.6
20260905222503 80 252 0.0 0.0 0.00 0.43 0.41 84 1010.6
20260905222004 80 252 0.0 0.0 0.00 0.43 0.41 84 1010.6
20260905221504 81 252 0.0 0.0 0.00 0.43 0.41 82 1010.4
20260905221003 81 294 0.0 3.0 0.00 0.43 0.41 82 1010.5
20260905220504 81 294 0.0 3.0 0.00 0.44 0.41 81 1010.4
20260905220004 82 294 1.0 3.0 0.00 0.44 0.41 83 1010.4
20260905215504 81 294 0.0 0.0 0.00 0.44 0.41 83 1010.4
20260905215004 81 294 0.0 0.0 0.00 0.44 0.41 83 1010.3
20260905214503 81 294 0.0 2.0 0.00 0.44 0.41 83 1010.5
20260905214004 81 242 0.0 3.0 0.00 0.44 0.41 82 1010.5
20260905213504 81 240 1.0 3.0 0.00 0.44 0.41 82 1010.5
20260905213004 81 355 0.0 2.0 0.00 0.44 0.41 84 1010.5
20260905212504 81 238 0.0 0.0 0.00 0.44 0.41 85 1010.5
20260905212003 81 238 0.0 0.0 0.00 0.44 0.41 85 1010.5
20260905211504 81 238 0.0 3.0 0.00 0.44 0.41 85 1010.6
20260905211003 80 238 0.0 3.0 0.00 0.44 0.41 85 1010.6
20260905210503 80 238 1.0 3.0 0.00 0.44 0.41 86 1010.6
20260905210004 80 238 0.0 0.0 0.00 0.44 0.41 87 1010.7
20260905205504 79 238 0.0 0.0 0.00 0.44 0.41 89 1010.7
20260905205003 79 238 0.0 0.0 0.00 0.44 0.41 87 1010.8
20260905204503 79 238 0.0 3.0 0.00 0.44 0.41 90 1010.8
20260905204003 78 238 0.0 3.0 0.00 0.44 0.41 92 1010.7
20260905203505 78 238 1.0 3.0 0.00 0.44 0.41 94 1010.6
20260905203003 77 227 0.0 3.0 0.00 0.44 0.41 95 1010.7
20260905202503 76 227 2.0 3.0 0.00 0.44 0.41 95 1010.4
20260905202004 76 226 2.0 3.0 0.00 0.44 0.41 95 1010.4
20260905201504 76 273 0.0 0.0 0.00 0.44 0.41 95 1010.5
20260905201003 75 273 0.0 0.0 0.00 0.44 0.41 95 1010.5
20260905200503 75 5 0.0 0.0 0.00 0.44 0.41 95 1010.4
20260905200004 75 5 0.0 2.0 0.01 0.44 0.41 95 1010.6
20260905195503 75 5 0.0 3.0 0.01 0.44 0.41 95 1010.5
20260905195004 75 5 2.0 3.0 0.01 0.44 0.41 95 1010.7
20260905194504 75 5 1.0 2.0 0.01 0.44 0.41 95 1010.8
20260905194004 75 5 0.0 3.0 0.01 0.44 0.41 95 1011.0
20260905193504 75 5 1.0 5.0 0.03 0.44 0.41 95 1011.0